Temp
5 5 5 5 5 4 4 4 4 4 4 4 4 4 4 4 4 4 4 3 3 3 3 3 3 3 3 3 3 3 3 3 3 3 3 3 3 3 3 3 3 3 3 3 3 3 3 3 3 3 3 3 3 3 3 3 3 3 3 3 3 3 3 4 4 5 5 5 5
5 5 5 4 4 4 4 4 4 4 4 4 4 4 4 4 4 4 3 3 3 3 3 3 3 3 2 2 2 2 2 2 2 2 3 3 3 3 3 3 3 3 3 3 3 3 3 3 3 3 3 3 3 3 3 3 3 3 3 3 3 3 3 3 4 4 4 5 5
5 5 4 4 4 4 4 4 4 4 4 4 4 4 4 4 4 3 3 3 3 3 3 3 3 3 2 2 2 2 2 2 2 2 2 2 2 2 2 2 2 2 2 2 2 2 3 3 3 3 3 3 3 3 3 3 3 3 3 3 3 3 3 3 3 3 4 4 5
5 5 4 4 4 4 4 4 4 4 4 4 4 4 4 3 3 3 3 3 3 3 3 3 3 3 3 2 2 2 2 2 2 2 2 2 2 2 2 2 2 2 2 2 2 2 2 2 2 3 3 3 3 3 3 3 3 3 2 2 2 3 3 3 3 3 3 3 4
5 5 4 4 4 4 4 4 4 4 4 4 4 4 3 3 3 3 3 3 3 3 3 3 3 3 3 2 2 2 2 2 2 2 2 2 2 2 2 2 2 2 2 2 2 2 2 2 2 2 2 2 2 2 2 2 2 2 2 2 2 2 2 2 3 3 3 3 3
5 5 4 4 4 4 4 4 4 4 4 4 4 3 3 3 3 3 3 3 3 3 3 3 2 2 2 2 2 2 2 2 2 2 2 2 2 2 2 2 2 2 2 2 2 2 2 2 2 2 2 2 2 2 2 2 2 2 2 2 2 2 2 2 2 2 2 3 3
5 4 4 4 4 4 4 4 4 4 3 3 3 3 3 3 3 3 3 3 2 2 2 2 2 2 2 2 2 2 2 2 2 2 2 2 2 2 2 2 2 2 2 2 2 1 1 1 1 1 1 1 1 2 2 2 2 2 2 2 2 2 2 2 2 2 2 2 3
4 4 4 4 4 4 4 4 4 3 3 3 3 3 3 3 3 3 3 3 2 2 2 2 2 2 2 2 2 2 2 2 2 2 2 2 2 2 2 2 2 2 1 1 1 1 1 1 1 1 1 1 1 1 1 1 1 1 1 1 2 2 2 2 2 2 2 2 2
4 4 4 4 4 4 4 4 3 3 3 3 3 3 3 3 3 3 3 2 2 2 2 2 2 2 2 2 2 2 2 2 2 2 2 2 1 1 1 1 1 1 1 1 1 1 1 1 1 1 1 1 1 1 1 1 1 1 1 1 1 1 2 2 2 2 2 2 3
4 4 4 4 4 4 4 3 3 3 3 3 3 3 3 3 3 3 2 2 2 2 2 2 2 2 2 2 1 1 1 1 2 2 2 1 1 1 1 1 1 1 1 1 1 1 1 1 1 0 0 0 0 0 0 0 0 0 1 1 1 1 1 1 2 2 2 2 2
3 3 4 4 3 3 3 3 3 3 3 3 3 2 2 2 2 2 2 2 2 2 2 2 2 2 1 1 1 1 1 1 1 1 1 1 1 1 1 1 1 1 1 1 1 1 1 0 0 0 0 0 -0 -0 -0 -0 -0 -0 0 0 0 0 1 1 1 2 2 2 2
3 3 3 3 3 3 3 3 3 3 3 3 2 2 2 2 2 2 2 2 2 2 2 2 1 1 1 1 1 1 1 1 1 1 1 1 1 1 1 1 1 1 1 1 0 0 0 0 0 0 -0 -0 -0 -0 -0 -1 -1 -1 -0 -0 -0 -0 0 0 1 1 1 2 2
3 3 3 2 2 2 2 2 2 2 2 2 2 2 2 2 2 2 1 1 1 1 1 1 1 1 1 1 1 1 1 1 1 1 1 1 1 1 1 1 1 0 0 0 0 0 0 0 -0 -0 -0 -0 -0 -1 -1 -1 -1 -1 -1 -1 -1 -1 -0 -0 0 0 1 1 1
3 3 2 2 2 2 2 2 2 2 2 1 1 2 2 2 1 1 1 1 1 1 1 1 1 1 1 1 1 1 1 1 1 1 1 1 1 1 0 0 0 0 0 0 0 0 -0 -0 -0 -0 -0 -1 -1 -1 -1 -1 -1 -1 -1 -1 -1 -1 -1 -1 -0 -0 0 0 1
3 2 2 2 2 2 2 1 1 1 1 0 0 1 1 1 1 1 1 1 1 1 1 1 1 1 1 1 1 1 0 0 0 0 0 0 0 0 0 0 0 0 0 -0 -0 -0 -0 -0 -0 -1 -1 -1 -1 -1 -1 -1 -1 -1 -1 -2 -1 -1 -1 -1 -1 -1 -0 -0 0
2 2 2 2 2 2 1 1 1 0 -0 -0 -0 -0 0 1 1 1 1 1 1 1 1 1 1 1 1 1 0 0 0 0 0 0 0 0 0 0 0 0 -0 -0 -0 -0 -0 -0 -0 -1 -1 -1 -1 -1 -1 -1 -1 -1 -1 -1 -1 -1 -2 -1 -1 -2 -1 -1 -1 -1 -1
2 2 2 2 1 1 1 1 0 0 -0 -0 -0 -0 0 1 1 1 1 1 1 1 0 0 0 0 0 0 0 0 0 -0 -0 -0 -0 -0 -0 -0 -0 -0 -0 -0 -0 -0 -0 -1 -1 -1 -1 -1 -1 -1 -1 -1 -1 -1 -1 -1 -1 -1 -1 -1 -1 -2 -2 -2 -1 -1 -1
1 1 1 1 1 1 1 0 0 -0 -0 -0 -0 -0 0 0 0 0 0 0 0 0 0 0 0 0 0 -0 -0 -0 -0 -0 -0 -0 -0 -0 -0 -0 -0 -0 -0 -0 -0 -1 -1 -1 -1 -1 -1 -1 -1 -1 -1 -1 -1 -1 -1 -2 -2 -2 -1 -1 -1 -1 -1 -1 -1 -1 -1
1 1 1 0 0 0 0 -0 -0 -0 -0 -0 0 0 0 0 0 -0 -0 -0 -0 -0 -0 -0 -0 -0 -0 -0 -0 -0 -0 -0 -0 -0 -1 -1 -1 -1 -1 -1 -1 -1 -1 -1 -1 -1 -1 -1 -1 -1 -1 -1 -1 -1 -1 -2 -2 -2 -2 -2 -2 -1 -1 -1 -1 -1 -1 -1 -1
0 0 0 0 0 -0 -0 -0 -0 -0 -0 -0 -0 -0 -0 -0 -0 -0 -1 -1 -1 -1 -1 -1 -1 -1 -1 -1 -1 -1 -1 -1 -1 -1 -1 -1 -1 -1 -1 -1 -1 -1 -1 -1 -1 -1 -1 -1 -1 -1 -1 -1 -1 -1 -2 -2 -2 -2 -2 -2 -2 -2 -1 -1 -1 -1 -1 -1 -1
0 0 0 -0 -0 -0 -0 -0 -1 -1 -1 -1 -1 -1 -1 -1 -1 -1 -1 -1 -1 -1 -1 -1 -1 -1 -1 -1 -1 -1 -1 -1 -1 -1 -1 -1 -1 -1 -1 -1 -1 -1 -1 -1 -1 -1 -1 -1 -1 -1 -1 -1 -2 -2 -2 -2 -2 -2 -2 -2 -2 -2 -2 -1 -1 -1 -1 -1 -1
0 0 -0 -0 -0 -1 -1 -1 -1 -1 -1 -1 -1 -1 -1 -1 -1 -1 -1 -1 -1 -2 -2 -2 -2 -2 -2 -2 -1 -1 -1 -1 -1 -1 -1 -1 -1 -1 -1 -1 -1 -1 -1 -1 -1 -1 -1 -2 -2 -2 -2 -2 -2 -2 -2 -2 -3 -3 -3 -3 -3 -2 -2 -2 -2 -1 -1 -1 -1
-0 -0 -0 -1 -1 -1 -1 -1 -1 -1 -1 -2 -2 -2 -2 -2 -2 -2 -2 -2 -2 -2 -2 -2 -2 -2 -2 -2 -2 -2 -2 -2 -2 -2 -2 -2 -2 -2 -2 -2 -2 -2 -2 -2 -2 -2 -2 -2 -2 -2 -2 -2 -2 -2 -3 -3 -3 -3 -3 -3 -3 -3 -3 -3 -3 -3 -2 -2 -2
-0 -1 -1 -1 -1 -1 -1 -2 -2 -2 -2 -2 -2 -2 -2 -2 -2 -2 -2 -2 -2 -2 -2 -2 -2 -2 -2 -2 -2 -2 -2 -2 -2 -2 -2 -2 -2 -2 -2 -2 -2 -2 -2 -2 -2 -2 -2 -2 -2 -2 -2 -3 -3 -3 -3 -3 -3 -3 -3 -3 -3 -3 -3 -3 -3 -3 -3 -3 -2
-1 -1 -1 -1 -2 -2 -2 -2 -2 -2 -2 -2 -3 -3 -3 -3 -3 -3 -3 -3 -3 -3 -3 -3 -3 -3 -3 -3 -3 -3 -3 -3 -3 -3 -2 -2 -2 -2 -2 -2 -2 -2 -2 -2 -2 -2 -2 -2 -2 -3 -3 -3 -3 -3 -3 -3 -3 -4 -4 -4 -4 -4 -3 -3 -3 -3 -3 -2 -2
-1 -2 -2 -2 -2 -2 -2 -2 -3 -3 -3 -3 -3 -3 -3 -3 -3 -3 -3 -3 -3 -3 -3 -3 -3 -3 -3 -3 -3 -3 -3 -3 -3 -3 -3 -3 -3 -3 -3 -3 -3 -3 -3 -3 -3 -3 -3 -3 -3 -3 -3 -3 -3 -4 -4 -4 -4 -4 -4 -4 -4 -4 -4 -4 -3 -3 -2 -2 -2
-2 -2 -2 -2 -2 -3 -3 -3 -3 -3 -3 -3 -3 -4 -4 -4 -4 -4 -4 -4 -4 -4 -4 -4 -4 -4 -4 -4 -4 -4 -4 -4 -4 -4 -4 -4 -4 -4 -4 -4 -4 -4 -4 -3 -3 -3 -3 -3 -4 -4 -4 -4 -4 -4 -4 -4 -4 -4 -4 -4 -4 -4 -4 -4 -4 -3 -3 -3 -2
-2 -2 -3 -3 -3 -3 -3 -3 -3 -3 -4 -4 -4 -4 -4 -4 -5 -5 -5 -5 -5 -5 -5 -5 -5 -5 -5 -5 -5 -5 -5 -5 -5 -5 -5 -5 -5 -5 -5 -4 -4 -4 -4 -4 -4 -4 -4 -4 -4 -4 -4 -4 -5 -5 -5 -5 -5 -5 -5 -5 -5 -5 -5 -4 -4 -4 -4 -3 -3
-3 -3 -3 -3 -3 -3 -3 -3 -4 -4 -4 -4 -5 -5 -5 -5 -5 -5 -6 -6 -6 -6 -6 -6 -6 -6 -6 -6 -6 -6 -6 -6 -6 -6 -6 -6 -6 -5 -5 -5 -5 -5 -5 -5 -5 -5 -5 -5 -5 -5 -5 -5 -5 -5 -5 -5 -5 -5 -5 -5 -5 -5 -5 -5 -4 -4 -4 -4 -4
-3 -3 -3 -3 -4 -4 -4 -4 -4 -4 -5 -5 -5 -5 -6 -6 -6 -6 -6 -6 -7 -7 -7 -7 -7 -7 -7 -6 -6 -6 -6 -6 -6 -6 -6 -6 -6 -6 -6 -6 -6 -6 -6 -5 -5 -5 -5 -5 -5 -5 -5 -5 -5 -5 -5 -5 -5 -5 -5 -5 -5 -5 -5 -5 -5 -5 -4 -4 -4
-3 -4 -4 -4 -4 -4 -4 -4 -5 -5 -5 -6 -6 -6 -6 -6 -6 -7 -7 -7 -7 -8 -7 -8 -8 -8 -7 -7 -7 -7 -7 -7 -7 -7 -7 -7 -7 -7 -7 -7 -7 -6 -6 -6 -6 -6 -6 -6 -6 -5 -5 -6 -6 -5 -5 -5 -5 -5 -5 -5 -5 -5 -5 -5 -5 -5 -4 -4 -4
-4 -4 -4 -4 -4 -4 -5 -5 -5 -6 -6 -6 -7 -7 -7 -7 -7 -8 -8 -8 -8 -8 -8 -8 -8 -8 -8 -8 -8 -8 -8 -8 -7 -7 -7 -7 -7 -8 -7 -7 -7 -7 -7 -6 -6 -6 -6 -6 -6 -6 -6 -6 -6 -6 -6 -6 -6 -6 -5 -5 -5 -5 -5 -5 -5 -5 -4 -4 -4
-4 -4 -5 -5 -5 -5 -5 -6 -6 -6 -7 -7 -7 -8 -8 -8 -8 -8 -9 -9 -9 -9 -9 -9 -9 -9 -8 -8 -8 -8 -8 -8 -8 -8 -8 -8 -8 -8 -8 -8 -8 -7 -7 -7 -7 -7 -6 -6 -6 -6 -6 -6 -6 -6 -6 -6 -6 -6 -6 -5 -5 -5 -5 -5 -5 -5 -4 -4 -4
-5 -5 -5 -5 -6 -6 -6 -6 -7 -7 -7 -8 -8 -8 -8 -9 -9 -9 -9 -9 -9 -9 -9 -9 -9 -9 -9 -9 -9 -9 -9 -9 -9 -9 -9 -9 -9 -9 -8 -8 -8 -8 -7 -7 -7 -7 -7 -7 -7 -7 -7 -7 -6 -6 -6 -6 -6 -6 -6 -5 -5 -5 -5 -5 -5 -5 -4 -4 -4
-5 -6 -6 -6 -6 -6 -7 -7 -7 -8 -8 -8 -8 -9 -9 -9 -9 -9 -10 -10 -10 -10 -10 -10 -9 -9 -9 -9 -9 -9 -9 -9 -9 -9 -9 -9 -9 -9 -8 -8 -8 -8 -8 -7 -7 -7 -7 -7 -7 -7 -7 -7 -6 -6 -6 -6 -6 -5 -5 -5 -5 -5 -5 -5 -5 -4 -4 -4 -4
-6 -6 -6 -7 -7 -7 -7 -8 -8 -8 -9 -9 -9 -9 -9 -9 -10 -10 -10 -10 -10 -10 -10 -10 -10 -10 -10 -10 -10 -9 -9 -9 -9 -9 -9 -9 -9 -8 -8 -8 -8 -7 -7 -7 -7 -7 -7 -7 -7 -7 -7 -7 -6 -6 -6 -6 -6 -5 -5 -5 -5 -5 -5 -5 -4 -4 -4 -4 -4
-6 -7 -7 -7 -7 -8 -8 -8 -9 -9 -9 -9 -9 -9 -10 -10 -10 -10 -10 -10 -10 -10 -10 -10 -10 -10 -10 -10 -9 -9 -9 -9 -9 -9 -9 -8 -8 -8 -8 -8 -7 -7 -7 -7 -7 -7 -7 -7 -7 -6 -6 -6 -6 -6 -6 -6 -6 -6 -5 -5 -5 -5 -4 -4 -4 -4 -4 -4 -4
-7 -7 -8 -8 -8 -8 -8 -9 -9 -9 -9 -10 -10 -10 -10 -10 -10 -10 -10 -10 -10 -10 -10 -10 -10 -10 -10 -9 -9 -9 -9 -9 -9 -9 -8 -8 -8 -8 -8 -7 -7 -7 -7 -7 -7 -7 -7 -6 -6 -6 -6 -6 -6 -6 -6 -6 -6 -5 -5 -5 -5 -5 -4 -4 -4 -4 -4 -4 -4
-7 -8 -8 -8 -9 -9 -9 -9 -9 -10 -10 -10 -10 -10 -10 -11 -11 -10 -10 -10 -10 -10 -10 -10 -10 -10 -9 -9 -9 -9 -9 -8 -8 -8 -8 -8 -7 -7 -7 -7 -7 -7 -7 -7 -6 -6 -6 -6 -6 -6 -6 -6 -6 -6 -6 -6 -6 -5 -5 -5 -5 -5 -4 -4 -4 -4 -4 -4 -3
-7 -8 -8 -9 -9 -9 -9 -10 -10 -10 -10 -10 -11 -11 -11 -11 -11 -10 -10 -10 -10 -10 -10 -10 -10 -10 -9 -9 -9 -9 -8 -8 -7 -7 -7 -7 -7 -7 -7 -7 -7 -7 -7 -6 -6 -6 -6 -6 -5 -5 -5 -6 -6 -6 -6 -6 -6 -5 -5 -5 -5 -5 -5 -4 -4 -4 -4 -3 -3
-7 -8 -8 -9 -9 -9 -10 -10 -10 -10 -11 -11 -11 -11 -11 -11 -11 -10 -10 -10 -10 -10 -10 -10 -10 -9 -9 -9 -9 -8 -8 -8 -7 -7 -7 -7 -7 -7 -7 -7 -7 -7 -6 -6 -6 -5 -5 -5 -5 -5 -5 -5 -6 -6 -6 -6 -5 -5 -5 -5 -5 -5 -5 -4 -4 -4 -3 -3 -3
Height
1479 1478 1477 1476 1475 1474 1473 1472 1471 1470 1469 1468 1467 1465 1465 1463 1462 1461 1460 1460 1459 1457 1456 1455 1455 1454 1454 1453 1453 1452 1451 1451 1450 1450 1450 1449 1449 1448 1448 1447 1446 1446 1445 1445 1445 1445 1444 1444 1444 1443 1443 1443 1443 1443 1442 1442 1442 1441 1441 1440 1440 1440 1439 1439 1439 1439 1439 1439 1438
1477 1477 1476 1475 1474 1473 1471 1470 1470 1469 1468 1466 1465 1464 1463 1462 1461 1460 1459 1458 1457 1456 1455 1454 1453 1452 1452 1451 1451 1450 1450 1449 1448 1448 1447 1447 1447 1446 1446 1445 1445 1444 1444 1443 1443 1442 1442 1442 1441 1441 1441 1440 1440 1440 1440 1440 1440 1439 1439 1439 1438 1438 1438 1437 1437 1437 1437 1437 1436
1475 1475 1474 1473 1472 1471 1470 1469 1468 1467 1466 1465 1464 1463 1461 1460 1459 1458 1457 1456 1455 1454 1453 1452 1451 1450 1450 1449 1449 1448 1447 1447 1446 1446 1445 1445 1445 1444 1444 1443 1443 1442 1442 1441 1441 1440 1440 1440 1439 1439 1439 1438 1438 1438 1438 1438 1438 1437 1436 1436 1436 1436 1435 1435 1435 1435 1435 1435 1435
1474 1473 1472 1471 1470 1469 1468 1467 1466 1465 1464 1463 1462 1461 1460 1459 1458 1456 1455 1454 1453 1452 1451 1450 1449 1448 1448 1447 1446 1445 1445 1445 1444 1444 1443 1443 1442 1442 1441 1441 1440 1440 1439 1439 1438 1438 1438 1437 1437 1437 1436 1436 1436 1435 1435 1435 1435 1435 1434 1434 1434 1433 1433 1433 1433 1432 1432 1432 1432
1471 1470 1470 1469 1468 1467 1466 1465 1464 1463 1462 1461 1460 1459 1458 1457 1455 1454 1453 1452 1451 1450 1449 1448 1447 1446 1445 1445 1444 1443 1443 1442 1442 1441 1441 1440 1440 1440 1439 1439 1438 1437 1437 1436 1436 1435 1435 1435 1434 1434 1434 1434 1434 1433 1433 1433 1433 1432 1431 1431 1431 1431 1431 1430 1430 1430 1430 1430 1430
1469 1469 1468 1467 1466 1465 1464 1463 1462 1461 1460 1459 1458 1457 1456 1455 1454 1452 1451 1450 1449 1447 1447 1446 1445 1444 1443 1442 1442 1441 1440 1440 1439 1439 1438 1438 1437 1437 1436 1436 1435 1435 1434 1434 1433 1433 1432 1432 1431 1431 1431 1431 1431 1431 1431 1431 1430 1430 1429 1429 1428 1428 1428 1428 1428 1428 1428 1427 1427
1468 1467 1466 1465 1464 1463 1462 1461 1460 1459 1458 1457 1456 1455 1454 1453 1452 1451 1449 1448 1447 1445 1445 1444 1443 1442 1441 1440 1439 1438 1438 1437 1436 1436 1436 1435 1435 1434 1434 1433 1433 1432 1432 1431 1430 1430 1429 1429 1428 1427 1427 1427 1427 1427 1428 1428 1428 1427 1426 1426 1425 1425 1425 1425 1425 1425 1425 1425 1425
1466 1465 1464 1463 1462 1461 1460 1459 1458 1456 1455 1455 1454 1453 1452 1451 1450 1449 1448 1446 1445 1444 1442 1441 1440 1439 1438 1438 1436 1436 1435 1435 1434 1433 1433 1433 1432 1431 1431 1430 1430 1429 1429 1428 1428 1427 1426 1426 1425 1424 1424 1424 1424 1424 1424 1425 1425 1424 1424 1423 1423 1423 1423 1422 1422 1422 1422 1422 1422
1465 1464 1462 1461 1460 1459 1458 1456 1455 1455 1453 1452 1451 1450 1450 1449 1448 1447 1446 1445 1443 1442 1441 1439 1438 1437 1436 1435 1434 1433 1433 1432 1431 1430 1430 1430 1429 1428 1428 1427 1427 1426 1425 1425 1425 1424 1423 1423 1422 1421 1421 1420 1420 1420 1420 1421 1421 1421 1421 1420 1420 1420 1420 1420 1420 1420 1419 1419 1419
1463 1462 1461 1460 1458 1457 1456 1455 1453 1452 1451 1450 1449 1448 1447 1446 1446 1445 1444 1443 1442 1440 1439 1438 1436 1435 1434 1433 1432 1431 1430 1429 1429 1428 1427 1426 1426 1425 1425 1424 1424 1423 1422 1422 1422 1421 1420 1420 1419 1418 1418 1417 1417 1417 1417 1417 1418 1418 1418 1417 1417 1417 1417 1417 1417 1417 1416 1416 1416
1461 1460 1459 1458 1457 1455 1454 1453 1451 1450 1449 1448 1446 1445 1445 1444 1443 1443 1442 1441 1440 1438 1437 1436 1435 1433 1432 1430 1430 1428 1427 1427 1426 1425 1424 1423 1423 1422 1421 1421 1420 1420 1419 1419 1418 1418 1417 1416 1416 1415 1415 1414 1414 1414 1414 1414 1414 1414 1414 1414 1414 1414 1414 1413 1414 1414 1414 1413 1413
1458 1457 1457 1456 1455 1454 1453 1451 1450 1449 1447 1446 1445 1443 1442 1441 1440 1440 1439 1438 1437 1436 1435 1434 1432 1431 1430 1428 1427 1426 1425 1424 1423 1422 1421 1420 1420 1419 1418 1418 1417 1416 1416 1415 1415 1415 1414 1413 1412 1412 1411 1411 1411 1411 1410 1410 1410 1410 1410 1410 1411 1411 1410 1410 1410 1411 1410 1410 1410
1456 1455 1454 1453 1452 1451 1450 1449 1448 1447 1446 1445 1443 1442 1440 1439 1438 1437 1436 1435 1434 1433 1432 1431 1430 1429 1427 1426 1425 1424 1423 1421 1420 1420 1418 1417 1416 1415 1415 1414 1414 1413 1412 1412 1412 1411 1411 1410 1409 1409 1408 1407 1407 1407 1407 1407 1407 1407 1407 1407 1407 1407 1407 1407 1407 1407 1408 1407 1407
1454 1453 1452 1450 1450 1449 1447 1446 1445 1445 1444 1443 1442 1440 1438 1437 1435 1435 1434 1432 1431 1430 1430 1429 1427 1426 1425 1424 1422 1421 1420 1419 1418 1417 1415 1414 1413 1412 1412 1411 1410 1410 1409 1409 1408 1408 1408 1407 1406 1406 1405 1404 1404 1404 1404 1404 1404 1404 1404 1404 1404 1404 1404 1404 1404 1404 1404 1404 1404
1452 1450 1450 1448 1447 1446 1445 1444 1443 1442 1441 1440 1440 1438 1437 1435 1434 1432 1431 1430 1429 1428 1427 1425 1424 1423 1422 1421 1420 1418 1417 1416 1415 1414 1412 1411 1410 1409 1408 1407 1407 1406 1406 1405 1405 1405 1404 1404 1403 1403 1402 1401 1400 1400 1400 1400 1400 1400 1400 1400 1400 1400 1400 1400 1400 1401 1401 1401 1401
1450 1449 1447 1446 1445 1444 1443 1441 1440 1439 1438 1438 1437 1436 1435 1433 1431 1430 1429 1427 1426 1425 1424 1422 1421 1420 1419 1418 1416 1415 1414 1413 1412 1410 1409 1408 1407 1406 1405 1404 1404 1403 1403 1402 1401 1401 1401 1400 1400 1400 1399 1398 1397 1397 1397 1397 1396 1396 1396 1396 1397 1397 1397 1397 1397 1397 1398 1398 1398
1448 1446 1445 1444 1443 1442 1440 1439 1438 1437 1436 1435 1435 1434 1432 1430 1429 1427 1426 1425 1423 1422 1420 1419 1418 1417 1415 1414 1413 1412 1411 1409 1408 1407 1406 1405 1404 1403 1402 1401 1400 1400 1399 1399 1398 1398 1397 1397 1397 1396 1396 1395 1395 1394 1394 1393 1393 1393 1393 1393 1393 1393 1393 1393 1394 1394 1394 1394 1394
1446 1445 1443 1442 1441 1440 1438 1437 1436 1435 1434 1433 1432 1431 1430 1428 1426 1425 1423 1422 1420 1419 1417 1415 1415 1414 1412 1411 1410 1409 1408 1406 1405 1404 1403 1402 1400 1400 1399 1398 1397 1397 1396 1395 1395 1394 1394 1393 1393 1393 1392 1392 1391 1391 1390 1390 1390 1389 1389 1389 1389 1389 1389 1390 1390 1390 1390 1390 1390
1444 1443 1442 1440 1439 1438 1436 1435 1434 1433 1432 1430 1429 1428 1426 1425 1423 1421 1420 1418 1417 1415 1414 1412 1411 1410 1409 1407 1406 1405 1404 1403 1401 1400 1399 1398 1397 1396 1395 1395 1394 1393 1393 1392 1391 1391 1390 1390 1390 1389 1389 1388 1388 1387 1387 1387 1386 1386 1386 1385 1385 1385 1385 1385 1386 1386 1386 1386 1387
1442 1441 1440 1439 1437 1436 1434 1433 1432 1430 1429 1427 1425 1424 1422 1421 1420 1418 1416 1414 1413 1412 1410 1409 1407 1406 1405 1404 1403 1401 1400 1399 1398 1397 1395 1395 1394 1393 1392 1391 1390 1390 1389 1388 1388 1387 1387 1386 1386 1385 1385 1385 1384 1384 1383 1383 1383 1382 1382 1382 1382 1382 1382 1382 1382 1382 1383 1383 1383
1440 1439 1437 1436 1435 1433 1431 1430 1429 1427 1425 1424 1422 1420 1419 1417 1416 1414 1413 1411 1410 1408 1407 1405 1404 1402 1401 1400 1399 1398 1396 1395 1395 1393 1392 1391 1390 1389 1388 1387 1386 1386 1385 1385 1384 1384 1383 1383 1382 1382 1381 1381 1380 1380 1380 1380 1379 1379 1378 1378 1378 1378 1378 1378 1378 1378 1378 1379 1379
1438 1436 1435 1433 1432 1430 1429 1427 1425 1424 1422 1420 1419 1417 1415 1414 1412 1411 1409 1407 1406 1405 1403 1401 1400 1399 1398 1396 1395 1394 1392 1391 1390 1389 1388 1387 1386 1385 1384 1384 1383 1382 1381 1380 1380 1380 1379 1379 1378 1378 1378 1377 1377 1376 1376 1376 1375 1375 1375 1374 1374 1374 1374 1374 1374 1374 1375 1375 1375
1435 1434 1432 1431 1429 1428 1426 1424 1422 1420 1419 1417 1415 1414 1412 1410 1409 1407 1405 1404 1402 1401 1399 1398 1396 1395 1394 1392 1391 1390 1389 1387 1386 1385 1384 1383 1382 1381 1380 1380 1379 1378 1377 1376 1376 1376 1375 1375 1374 1374 1374 1374 1373 1373 1373 1372 1372 1371 1371 1370 1370 1370 1370 1370 1370 1371 1371 1371 1371
1433 1431 1430 1428 1426 1425 1423 1421 1419 1417 1415 1414 1412 1410 1408 1407 1405 1403 1401 1400 1398 1397 1395 1394 1393 1391 1390 1388 1387 1386 1385 1383 1382 1381 1380 1379 1378 1377 1376 1375 1375 1374 1373 1372 1372 1371 1371 1371 1370 1370 1370 1370 1369 1369 1369 1369 1368 1368 1367 1367 1367 1366 1366 1366 1367 1367 1367 1367 1368
1430 1429 1427 1425 1423 1421 1420 1418 1416 1414 1412 1410 1408 1406 1405 1403 1401 1399 1397 1395 1394 1393 1391 1390 1388 1387 1385 1384 1383 1382 1380 1379 1378 1377 1375 1374 1374 1373 1372 1371 1370 1369 1368 1367 1367 1367 1367 1366 1366 1366 1366 1365 1365 1365 1365 1364 1364 1364 1363 1363 1363 1362 1362 1362 1362 1362 1363 1363 1364
1428 1426 1424 1422 1420 1418 1416 1414 1412 1410 1409 1406 1405 1403 1401 1399 1397 1395 1393 1391 1390 1388 1387 1385 1384 1382 1381 1380 1378 1377 1376 1375 1374 1372 1371 1370 1369 1368 1367 1366 1365 1364 1363 1363 1362 1362 1362 1362 1362 1362 1362 1362 1361 1361 1360 1360 1360 1359 1359 1359 1359 1358 1358 1357 1357 1357 1358 1359 1360
1425 1423 1421 1419 1417 1415 1413 1411 1409 1407 1405 1403 1401 1399 1397 1395 1393 1391 1389 1387 1385 1383 1382 1380 1379 1377 1376 1375 1373 1372 1371 1370 1369 1368 1366 1365 1364 1363 1362 1361 1360 1360 1359 1358 1358 1357 1357 1357 1357 1358 1358 1358 1357 1357 1357 1356 1355 1355 1355 1355 1355 1355 1354 1354 1353 1353 1354 1354 1355
1422 1420 1418 1415 1413 1411 1409 1407 1405 1403 1401 1399 1397 1395 1393 1391 1389 1386 1385 1382 1380 1379 1377 1375 1373 1372 1371 1369 1368 1366 1365 1364 1363 1362 1361 1360 1359 1358 1357 1356 1355 1354 1354 1353 1353 1353 1353 1353 1353 1353 1353 1353 1353 1353 1352 1352 1352 1351 1351 1351 1350 1350 1350 1350 1350 1350 1350 1350 1351
1419 1417 1415 1412 1410 1408 1406 1404 1402 1400 1398 1395 1393 1391 1389 1387 1384 1382 1380 1378 1376 1374 1372 1370 1369 1367 1366 1364 1362 1361 1360 1359 1358 1357 1356 1355 1354 1352 1351 1350 1350 1349 1349 1348 1348 1348 1348 1348 1348 1348 1348 1349 1349 1349 1349 1348 1348 1347 1347 1347 1347 1346 1346 1346 1346 1347 1347 1347 1348
1416 1414 1411 1409 1407 1405 1402 1400 1398 1396 1394 1392 1390 1387 1385 1382 1380 1378 1375 1374 1371 1370 1368 1366 1365 1363 1361 1359 1358 1356 1355 1353 1352 1352 1351 1350 1348 1346 1345 1345 1344 1344 1343 1343 1343 1343 1343 1343 1343 1343 1343 1344 1345 1345 1345 1344 1344 1343 1343 1342 1342 1342 1342 1342 1342 1342 1343 1344 1345
1413 1410 1408 1406 1403 1401 1399 1397 1395 1392 1390 1388 1385 1383 1380 1378 1376 1374 1371 1370 1368 1365 1364 1362 1360 1358 1356 1355 1353 1352 1350 1349 1348 1347 1346 1345 1343 1341 1340 1340 1339 1338 1338 1338 1338 1338 1338 1338 1338 1338 1338 1339 1340 1340 1340 1340 1340 1339 1339 1338 1338 1337 1337 1338 1338 1338 1339 1340 1341
1410 1407 1405 1403 1400 1397 1395 1393 1391 1389 1386 1384 1381 1379 1377 1374 1372 1370 1368 1366 1364 1362 1360 1358 1356 1354 1352 1350 1349 1347 1346 1345 1343 1342 1341 1340 1338 1337 1335 1334 1334 1333 1332 1332 1332 1332 1332 1332 1332 1333 1333 1334 1335 1336 1336 1335 1335 1335 1334 1333 1333 1333 1333 1334 1334 1335 1335 1336 1337
1407 1404 1402 1399 1396 1394 1391 1389 1387 1385 1382 1380 1377 1375 1373 1370 1368 1366 1364 1362 1360 1359 1356 1354 1352 1350 1348 1346 1345 1343 1342 1340 1339 1338 1336 1335 1334 1333 1331 1330 1329 1328 1327 1327 1327 1327 1327 1327 1328 1328 1329 1330 1331 1331 1331 1331 1330 1330 1329 1328 1328 1328 1329 1330 1330 1330 1331 1332 1333
1403 1401 1398 1396 1393 1390 1388 1385 1383 1381 1379 1376 1374 1371 1370 1368 1365 1363 1360 1359 1357 1355 1353 1351 1349 1347 1345 1343 1341 1340 1338 1336 1335 1334 1332 1331 1330 1329 1327 1325 1324 1323 1323 1323 1323 1323 1323 1323 1323 1324 1325 1325 1326 1326 1326 1326 1325 1325 1324 1324 1324 1324 1325 1325 1326 1327 1328 1329 1330
1400 1398 1395 1392 1390 1387 1385 1382 1380 1377 1375 1373 1370 1368 1366 1364 1362 1360 1357 1355 1353 1351 1349 1347 1345 1343 1341 1339 1338 1336 1334 1332 1330 1329 1328 1327 1326 1324 1322 1320 1319 1319 1319 1319 1319 1319 1319 1319 1320 1320 1321 1322 1322 1322 1322 1321 1321 1320 1320 1320 1320 1320 1320 1321 1322 1323 1324 1325 1326
1398 1395 1392 1389 1386 1384 1382 1379 1377 1375 1372 1370 1367 1365 1362 1360 1358 1356 1354 1352 1350 1348 1345 1343 1341 1340 1338 1335 1334 1332 1330 1329 1327 1325 1324 1323 1321 1320 1318 1315 1314 1314 1314 1315 1315 1315 1315 1315 1315 1316 1317 1318 1318 1318 1317 1317 1317 1316 1316 1315 1315 1315 1316 1317 1318 1319 1320 1321 1322
1395 1392 1390 1387 1384 1381 1379 1376 1374 1372 1369 1366 1364 1362 1359 1357 1355 1353 1351 1350 1347 1344 1342 1340 1338 1336 1334 1332 1330 1328 1326 1325 1323 1321 1319 1318 1317 1315 1313 1311 1310 1309 1309 1310 1310 1310 1310 1310 1310 1311 1312 1313 1313 1312 1312 1312 1312 1312 1311 1311 1311 1311 1312 1313 1314 1315 1315 1316 1318
1392 1390 1387 1385 1382 1379 1376 1374 1371 1369 1366 1363 1361 1359 1356 1354 1352 1350 1348 1346 1345 1341 1338 1336 1334 1332 1330 1328 1326 1323 1321 1320 1319 1317 1315 1314 1312 1311 1310 1307 1305 1304 1304 1305 1305 1305 1305 1305 1305 1306 1306 1307 1307 1307 1308 1307 1307 1307 1307 1307 1306 1307 1307 1309 1310 1310 1311 1312 1314
1390 1388 1385 1382 1380 1376 1374 1371 1369 1366 1364 1361 1358 1355 1353 1351 1349 1347 1345 1344 1342 1339 1336 1333 1330 1328 1326 1324 1322 1319 1317 1315 1315 1313 1312 1310 1308 1307 1306 1304 1301 1300 1300 1300 1300 1300 1300 1300 1300 1300 1301 1302 1302 1303 1303 1303 1303 1302 1302 1302 1302 1303 1303 1304 1305 1306 1306 1308 1310
1387 1385 1382 1380 1377 1374 1371 1369 1366 1364 1361 1359 1356 1353 1350 1349 1346 1344 1342 1340 1338 1336 1333 1330 1327 1324 1322 1321 1319 1316 1313 1311 1310 1309 1308 1306 1304 1303 1302 1300 1298 1296 1295 1295 1295 1295 1295 1294 1294 1295 1295 1297 1297 1298 1298 1298 1298 1298 1298 1298 1298 1299 1299 1300 1300 1301 1303 1304 1306
1385 1382 1380 1377 1375 1372 1369 1366 1363 1360 1358 1356 1354 1351 1348 1346 1344 1341 1339 1337 1335 1333 1330 1327 1324 1321 1319 1317 1315 1312 1309 1307 1305 1305 1304 1302 1300 1299 1298 1296 1294 1292 1291 1290 1290 1290 1289 1289 1289 1289 1290 1291 1292 1293 1294 1294 1294 1293 1293 1293 1294 1295 1295 1296 1297 1298 1299 1301 1303
Wind_Speed
25 25 25 26 26 27 27 27 27 28 28 28 29 29 30 30 31 32 33 33 32 30 30 30 30 30 31 31 31 31 31 31 30 30 29 29 28 28 28 28 28 28 27 27 27 26 26 26 26 26 26 26 26 26 25 25 26 26 27 28 29 30 30 30 30 29 29 30 30
27 27 27 27 27 28 28 28 28 29 29 29 30 31 31 32 33 33 34 33 31 30 29 29 30 30 31 31 31 31 31 31 31 31 30 30 29 29 29 29 29 29 29 29 29 28 28 28 28 28 28 28 28 28 28 27 27 28 28 29 30 31 31 32 32 31 31 30 30
28 28 29 29 29 29 29 30 30 30 30 30 31 32 33 33 34 35 35 34 32 31 30 30 30 30 31 31 31 31 31 32 31 31 31 31 30 30 30 30 30 30 31 31 31 31 31 30 30 30 30 30 30 30 30 30 29 29 30 30 31 32 32 33 33 34 33 32 31
29 29 29 30 30 30 31 31 31 31 31 31 32 33 34 35 36 36 36 35 34 32 32 31 31 31 31 31 32 32 32 31 32 32 31 31 31 31 31 31 32 32 32 33 33 33 34 33 33 32 32 31 31 31 31 31 31 31 31 32 32 32 33 33 34 34 34 34 33
29 29 30 30 30 31 31 32 32 32 32 32 33 34 35 36 37 37 36 36 35 34 33 33 33 33 33 33 32 32 32 32 32 32 32 32 32 32 33 33 33 34 34 35 35 36 36 36 36 35 35 34 33 33 32 32 31 32 32 32 32 33 33 33 34 34 35 35 35
30 30 30 30 30 31 31 32 32 32 32 32 33 34 36 37 37 37 37 36 36 35 35 35 35 35 35 35 34 34 33 33 33 33 33 33 33 34 34 35 35 36 36 36 37 37 38 38 38 38 38 37 36 35 33 32 31 31 31 32 32 32 32 33 33 34 34 34 35
30 30 30 30 30 31 31 31 31 31 32 32 32 34 35 37 38 38 38 37 37 37 36 36 36 36 36 36 36 36 35 35 34 34 34 35 35 36 36 36 37 37 37 38 38 39 39 40 40 41 41 40 39 37 35 33 31 31 31 31 31 31 32 32 32 33 33 34 34
30 30 30 30 30 30 31 31 31 31 31 31 32 33 34 36 38 39 39 39 38 38 38 37 37 37 37 38 38 38 37 37 36 36 36 36 37 37 38 38 38 38 39 39 39 40 40 41 42 42 43 43 42 40 37 34 32 31 30 30 30 31 31 31 31 32 32 33 34
30 30 30 30 31 31 30 31 31 31 31 31 32 32 33 35 37 39 40 40 39 39 39 38 38 38 38 39 39 39 40 39 39 38 37 38 38 39 39 40 40 40 40 40 41 41 42 42 43 44 44 44 43 42 39 37 34 32 31 30 30 30 30 30 31 31 32 32 33
30 31 31 31 31 31 31 31 31 32 32 32 32 32 33 34 36 37 39 39 40 39 39 39 39 39 40 40 40 41 41 41 41 40 39 39 39 40 41 41 41 42 42 42 42 42 43 43 44 44 44 44 43 42 41 39 36 34 33 32 31 31 31 31 30 31 31 32 33
30 31 31 32 32 32 32 32 33 33 33 33 33 32 32 33 34 35 37 38 39 39 39 39 40 40 40 41 42 43 43 43 43 42 41 41 41 41 42 42 43 43 43 43 43 43 44 44 44 45 45 44 43 42 41 39 38 36 35 34 33 32 32 32 31 31 31 31 32
29 29 29 30 31 31 31 32 33 33 34 33 33 32 32 32 33 34 35 36 38 39 40 40 40 41 41 42 43 44 45 45 45 44 43 42 42 43 43 44 44 44 44 44 44 44 44 44 45 45 45 44 44 42 41 40 39 38 37 36 35 34 34 33 32 31 31 31 32
28 27 27 28 28 29 30 31 31 32 33 33 33 32 32 32 32 33 34 35 37 39 40 41 42 42 43 43 44 45 46 46 46 45 44 44 44 44 44 45 45 45 45 45 45 45 45 45 45 44 44 44 44 43 42 41 40 39 38 37 37 36 35 34 33 32 32 31 32
30 29 28 28 28 28 29 30 31 31 33 34 34 33 33 33 33 33 34 35 37 39 41 43 44 44 44 45 45 45 46 46 46 45 45 45 45 45 45 45 45 46 46 46 45 45 45 44 44 44 44 44 44 43 43 42 41 40 39 38 37 37 36 35 34 33 32 32 32
33 32 32 32 32 31 31 31 31 31 33 35 36 36 35 35 34 34 35 36 38 39 41 43 45 46 46 46 46 46 46 46 46 45 45 45 45 45 45 46 46 46 46 46 46 45 45 44 44 43 43 44 44 44 43 43 42 41 40 39 38 37 37 36 35 34 33 32 32
35 35 36 36 35 35 34 33 33 32 33 35 37 38 38 37 36 36 37 38 39 40 42 43 45 46 47 47 47 47 46 46 45 45 45 45 45 46 46 46 46 46 46 46 46 45 45 44 44 44 44 44 44 44 44 44 43 43 42 41 41 40 39 37 36 35 34 33 33
35 36 36 37 37 36 36 35 35 34 35 36 38 39 39 39 38 38 39 40 41 42 43 44 45 45 46 47 47 47 46 46 45 45 45 45 46 46 46 47 47 47 47 47 46 46 45 45 45 44 44 44 44 44 44 44 44 44 44 44 43 42 41 40 38 37 36 34 34
34 34 34 35 35 35 35 35 35 35 36 37 39 40 40 40 40 41 41 42 42 43 44 44 45 45 46 46 46 46 46 46 46 45 46 46 46 46 47 47 48 48 48 47 47 47 46 46 46 45 45 45 45 45 45 45 45 45 45 45 45 45 44 43 41 39 37 36 35
31 31 32 32 32 33 33 33 34 35 37 38 40 41 42 43 43 43 44 44 44 44 45 45 45 45 45 45 46 46 46 45 46 46 46 46 47 47 47 48 48 48 48 48 48 47 47 47 46 46 46 45 45 45 45 45 45 46 46 47 47 47 46 45 43 41 39 38 36
30 31 32 33 34 34 35 36 37 38 39 40 41 43 44 44 45 45 45 45 45 45 45 45 45 45 45 45 45 45 45 45 46 46 47 47 47 48 48 48 49 49 49 48 48 48 47 47 47 47 46 46 46 46 46 46 46 47 47 47 48 48 47 46 45 43 41 39 37
33 34 36 37 38 38 39 40 40 41 42 42 43 44 44 45 45 45 45 45 45 44 44 44 44 44 44 44 44 44 45 45 46 46 47 47 48 48 48 48 49 49 49 48 48 48 48 48 48 47 47 47 47 46 46 46 46 47 47 47 48 48 48 47 45 43 42 40 38
37 38 39 40 41 41 42 42 43 43 43 44 44 44 44 44 44 44 44 44 44 43 43 43 43 43 43 43 43 44 44 45 46 47 47 48 48 49 49 49 49 48 48 49 49 48 48 48 48 48 48 47 47 46 46 45 45 45 46 47 47 47 46 45 44 43 42 41 40
39 40 41 42 42 42 43 43 44 44 44 44 44 44 44 44 44 44 44 44 43 43 43 43 43 43 43 43 43 44 45 45 46 47 48 49 49 50 50 49 49 49 49 49 49 49 49 49 49 49 48 47 46 46 45 45 44 44 44 44 45 44 44 43 42 42 41 41 40
41 42 42 43 43 43 44 44 44 44 44 44 44 44 44 44 44 44 45 45 45 44 44 44 44 44 44 44 45 45 45 46 47 48 49 49 50 50 50 50 50 50 50 50 50 50 50 50 50 50 49 47 46 45 44 44 44 44 44 45 44 44 44 44 43 42 41 40 38
42 43 43 43 44 44 44 45 45 45 45 45 45 45 45 46 46 46 46 47 47 47 47 47 47 47 47 47 47 47 48 48 48 49 49 50 50 51 51 51 51 51 51 52 52 52 52 51 51 50 49 48 47 46 46 47 47 47 47 47 46 46 45 45 44 43 42 40 38
43 43 43 44 44 45 45 45 45 46 46 46 46 47 47 47 47 48 48 49 50 50 50 50 50 51 51 50 51 50 50 50 50 50 50 51 51 51 51 51 51 51 52 52 52 53 53 52 51 51 50 49 48 48 48 49 49 49 48 47 46 45 45 45 45 44 43 40 38
43 44 44 44 45 45 46 46 46 47 47 47 48 48 48 49 49 49 50 50 51 52 52 52 53 53 52 52 52 52 53 53 52 52 51 51 51 51 51 51 51 51 51 52 52 52 52 52 51 51 50 49 49 48 47 48 48 48 47 45 45 44 44 44 44 44 43 41 38
44 44 44 45 45 46 47 47 47 48 48 48 48 49 49 50 50 50 50 51 52 52 53 53 54 52 51 52 51 51 52 53 52 52 51 51 51 51 52 52 52 52 52 52 52 51 51 51 51 51 50 49 49 49 48 47 47 46 46 45 44 44 43 42 42 43 42 42 40
44 44 45 45 46 47 47 47 48 48 48 49 49 49 49 50 50 50 50 50 50 50 50 51 51 50 49 49 50 51 51 51 51 51 50 50 50 51 52 52 53 52 52 52 52 51 51 51 51 51 50 49 48 47 47 46 46 45 44 43 43 42 42 42 42 41 40 40 39
44 45 45 46 46 47 48 48 48 48 48 48 49 49 49 49 48 49 48 48 48 47 47 47 47 47 48 48 48 49 49 49 49 48 48 48 49 50 50 50 50 50 50 51 51 51 51 51 51 51 50 49 47 46 45 45 45 45 44 45 45 44 44 44 44 43 42 41 40
44 45 45 46 47 48 48 48 48 48 48 48 48 48 48 48 47 47 46 45 45 44 44 44 44 45 46 46 46 46 46 46 46 46 46 45 46 47 47 48 48 49 49 49 50 50 50 51 51 51 50 49 47 46 45 46 46 46 46 46 47 47 46 45 45 44 43 42 41
44 45 46 46 47 48 48 48 48 48 48 47 47 47 47 47 46 46 45 44 44 43 43 44 44 44 45 44 45 44 44 45 45 45 45 45 45 45 46 47 47 47 47 48 48 48 48 49 49 48 48 47 46 45 45 45 45 46 46 47 47 47 46 46 45 45 44 43 41
45 45 46 47 47 48 48 48 48 47 47 47 47 47 46 46 45 45 44 44 43 43 43 43 43 44 44 44 44 44 44 44 44 44 44 44 44 45 45 45 46 46 46 46 46 46 45 45 45 44 43 42 42 42 42 43 44 45 46 47 47 47 47 46 46 45 44 42 40
45 46 47 47 48 48 48 48 47 47 47 47 47 46 45 44 44 44 44 44 43 42 42 42 42 43 43 43 43 43 44 44 44 44 44 43 43 44 44 45 45 45 45 44 44 44 43 43 43 42 42 41 41 41 42 43 44 45 46 47 47 47 47 46 45 44 43 41 39
46 46 47 47 48 48 47 47 47 46 46 46 46 46 44 43 43 44 44 43 42 42 42 42 42 42 42 43 43 43 43 44 44 44 43 43 44 44 45 46 45 44 44 43 43 43 43 43 42 42 42 42 42 42 43 44 45 46 47 47 47 47 46 45 44 43 42 40 38
46 46 46 47 47 46 46 45 45 45 45 45 46 46 45 44 43 43 42 42 42 42 42 42 42 42 42 43 43 44 44 44 45 45 45 45 45 46 47 47 46 45 44 43 43 43 43 42 42 42 41 41 42 43 44 45 45 46 46 47 47 46 45 44 43 42 40 38 37
46 45 45 45 44 44 44 44 44 44 44 45 45 45 45 44 43 42 41 41 41 41 42 42 42 43 44 44 45 45 45 45 45 46 46 46 46 47 47 48 47 46 44 43 43 43 42 42 41 40 40 41 42 43 44 44 45 45 46 46 45 45 43 42 41 40 38 37 36
45 44 43 42 42 43 43 44 43 43 43 44 44 44 43 43 42 42 41 40 40 41 42 43 44 45 45 46 46 47 46 46 46 46 47 47 47 47 48 48 48 47 45 44 43 43 42 41 40 39 39 40 41 42 43 44 45 45 45 45 45 43 42 41 39 38 36 35 34
45 43 42 41 42 42 42 42 42 42 43 43 44 43 43 42 42 41 41 41 41 42 43 45 46 46 46 46 47 47 47 47 46 46 47 47 47 46 47 48 48 47 45 43 42 42 41 40 39 38 38 40 41 42 43 44 45 45 45 45 44 43 42 40 38 36 34 32 32
44 43 42 41 41 41 41 41 41 41 42 42 42 42 42 42 42 41 41 42 42 43 44 45 46 47 47 46 47 48 48 47 46 45 46 46 46 45 46 46 47 46 44 42 41 40 39 39 38 38 38 40 41 42 43 44 45 45 45 44 44 43 42 40 37 34 32 31 31
44 42 41 40 40 39 39 40 41 41 41 41 41 41 41 41 41 42 42 43 43 44 45 46 47 47 46 46 47 48 48 48 46 45 44 44 44 44 44 44 45 44 42 40 39 38 38 37 37 38 38 40 41 42 43 44 44 45 45 44 43 42 41 39 36 33 31 31 32
Wind_Direction
294 294 294 294 295 296 296 297 297 297 297 298 298 299 299 300 302 305 309 313 315 315 313 312 312 312 312 312 313 313 313 312 312 312 312 311 310 309 308 307 305 303 302 301 300 300 299 300 300 301 301 302 302 302 302 301 301 301 301 302 302 303 303 303 302 300 300 300 302
293 293 293 293 293 293 293 293 293 294 294 294 295 295 296 297 299 302 306 311 315 316 316 314 313 312 312 311 311 311 311 311 311 311 310 309 308 307 306 305 303 302 301 300 299 298 298 297 297 298 298 299 300 300 300 300 300 299 299 298 299 299 300 301 301 300 299 298 298
292 292 292 292 291 292 292 292 292 291 292 292 293 293 294 294 296 299 303 308 312 315 316 317 317 315 314 312 311 310 310 310 310 310 309 308 307 306 304 303 302 301 300 299 298 297 297 296 296 296 296 297 298 298 299 299 299 298 297 297 296 297 297 298 299 300 300 299 298
290 290 290 290 290 290 290 290 290 290 291 291 292 293 293 294 295 297 300 304 308 311 314 316 318 318 317 315 312 310 309 309 308 308 307 306 305 304 303 301 300 300 299 299 298 297 296 296 296 295 295 296 296 297 297 298 297 297 296 295 294 295 295 296 297 298 299 299 299
290 289 289 288 288 288 288 289 289 289 289 290 291 292 293 294 296 298 300 302 304 307 309 312 315 317 318 317 315 312 310 308 307 306 305 304 303 302 301 300 299 299 298 298 297 297 297 296 296 296 296 296 296 296 297 297 296 295 294 293 292 292 292 293 294 295 296 297 298
290 290 289 288 288 287 287 287 287 286 286 287 289 291 293 295 297 299 300 302 303 304 306 308 310 313 315 317 317 314 311 308 306 304 303 302 301 300 299 299 298 298 297 297 297 296 296 297 297 297 297 298 298 298 298 297 296 295 293 291 290 290 290 291 292 292 293 294 295
292 291 291 290 289 288 287 286 285 285 284 285 286 288 291 294 296 298 300 301 302 303 304 305 307 309 312 314 315 315 313 310 306 304 302 301 299 299 298 297 297 297 296 296 296 296 297 297 298 298 299 299 299 299 299 299 298 296 294 292 290 289 290 290 290 291 292 292 293
294 293 293 292 291 289 288 287 286 285 284 284 285 286 288 291 294 296 298 299 300 301 302 304 305 307 309 311 312 313 313 311 308 304 301 299 297 297 296 296 296 295 295 295 295 296 296 297 298 298 299 300 300 301 301 301 300 298 296 293 291 290 290 290 290 291 291 292 292
299 297 296 295 293 291 290 288 287 287 286 286 286 286 287 288 290 293 295 296 298 299 301 302 303 305 306 308 309 310 311 310 308 304 301 298 296 295 295 295 294 294 294 294 295 295 296 297 297 298 298 299 300 301 302 302 301 299 297 295 294 292 291 290 291 291 291 292 292
304 303 300 298 296 294 292 290 289 288 288 288 288 287 287 287 289 290 292 295 297 298 299 301 302 303 304 306 307 308 308 308 307 304 301 298 295 294 294 294 293 293 293 293 294 294 295 295 296 297 297 298 299 300 301 301 301 300 298 297 296 295 293 292 291 291 291 291 292
310 308 305 303 300 298 295 293 291 290 289 289 288 288 288 288 288 289 292 294 296 297 299 300 301 302 303 303 304 305 306 306 305 303 300 297 295 293 293 292 292 292 292 292 293 293 294 294 295 295 296 297 298 298 299 300 300 299 299 298 297 296 295 293 292 292 291 291 291
312 312 310 308 306 304 301 298 296 294 292 290 289 288 287 287 288 289 291 294 296 298 299 299 300 301 301 301 302 302 303 303 303 301 299 296 294 293 292 291 291 291 291 292 292 292 293 293 294 294 295 296 296 297 297 298 298 298 298 298 298 297 295 293 292 292 291 291 290
310 311 310 310 309 308 306 304 302 299 296 293 291 289 288 287 288 289 290 293 295 297 298 299 299 299 299 299 300 300 301 301 300 299 297 295 293 292 291 291 290 290 291 291 291 291 292 292 292 293 293 294 294 295 295 295 296 296 296 297 297 296 294 293 292 291 291 290 289
306 305 305 305 305 305 306 305 304 303 301 299 295 292 290 289 289 289 290 291 292 293 295 296 296 297 297 297 298 298 298 298 297 296 295 293 292 291 290 290 290 290 290 290 290 291 291 291 291 291 292 292 292 293 293 294 294 294 294 294 294 294 293 292 292 291 289 288 287
303 302 301 300 299 299 300 301 302 303 303 302 300 297 294 292 292 291 291 290 290 291 291 292 293 294 294 295 296 296 296 295 295 293 292 291 290 290 289 289 289 289 289 289 290 290 290 290 290 290 290 290 290 291 291 292 292 292 292 292 292 292 292 291 290 289 288 286 286
304 302 301 300 298 297 297 298 299 301 302 302 302 300 297 295 294 293 292 291 291 291 290 290 291 292 293 293 294 294 294 293 292 291 290 289 289 288 288 288 288 288 289 289 289 289 289 289 288 288 288 288 288 289 289 290 290 290 290 291 291 291 290 290 288 287 286 285 284
306 305 304 303 302 300 299 299 300 301 301 301 301 300 298 297 296 295 294 293 293 292 292 291 291 292 292 292 292 293 292 292 290 289 288 288 287 287 287 287 287 287 287 288 288 288 287 287 287 287 286 286 286 286 287 287 288 288 289 290 290 290 290 289 287 286 285 284 282
309 309 309 308 307 306 304 303 302 301 300 299 298 298 297 297 297 296 295 294 294 293 293 293 292 292 292 292 291 291 291 290 289 288 287 287 286 286 286 286 286 286 286 286 286 286 286 286 286 285 285 284 284 284 284 285 285 286 287 288 289 289 289 288 286 285 283 282 281
311 311 311 311 310 309 307 305 303 301 300 298 297 297 297 297 297 296 296 295 294 294 294 293 293 292 291 291 290 290 289 288 288 287 287 286 285 285 284 284 284 284 284 284 284 284 284 284 284 283 283 282 282 282 282 283 283 284 285 287 287 287 287 286 285 284 283 282 281
311 311 311 310 310 309 308 306 305 303 301 300 299 298 298 297 297 296 296 295 295 294 294 293 293 292 291 290 289 289 288 287 287 286 286 285 284 284 283 283 283 283 283 283 283 283 282 282 282 281 281 280 280 280 281 281 282 283 284 285 285 285 285 284 284 283 282 281 280
310 310 310 310 309 309 308 307 306 304 303 301 300 299 298 297 297 296 296 295 295 294 294 293 292 291 290 289 288 288 287 286 285 285 284 284 283 283 282 282 282 282 282 281 281 281 280 280 280 279 279 279 279 279 279 280 281 281 282 283 283 284 284 283 282 282 281 281 280
310 310 310 309 309 308 307 306 305 303 302 301 300 299 298 297 296 296 295 295 294 293 292 291 290 290 289 288 287 286 285 284 283 283 282 282 282 281 281 281 281 280 280 279 279 279 278 278 278 278 277 277 277 277 278 278 279 280 281 282 282 282 282 282 281 281 281 280 280
309 309 309 309 308 307 306 304 303 302 301 300 299 299 298 297 296 295 294 293 292 291 290 289 288 287 286 286 285 284 283 282 282 281 280 280 280 280 280 279 279 278 278 277 277 276 276 276 276 276 275 275 275 276 276 277 278 278 279 280 280 280 280 279 279 279 279 279 279
309 308 308 307 306 305 304 303 302 302 301 300 300 299 298 297 296 295 293 292 291 289 288 287 286 285 284 283 282 282 281 281 280 280 279 279 278 278 278 278 277 277 276 275 275 275 274 274 274 274 274 274 274 275 275 276 276 277 277 278 278 277 277 277 276 276 276 276 275
309 308 307 306 305 304 303 303 302 302 301 300 300 299 298 297 296 294 293 291 290 289 287 286 284 283 282 281 281 280 280 280 279 279 278 278 277 277 277 276 276 275 275 274 274 273 273 273 273 273 273 274 274 274 275 276 276 277 277 278 277 277 277 277 276 276 275 274 272
309 308 307 306 305 304 303 303 302 301 301 300 299 299 298 297 295 294 293 291 290 289 287 286 285 283 283 282 281 281 280 279 279 279 278 278 277 276 276 275 275 274 274 273 273 273 273 272 272 272 272 273 273 274 275 276 277 277 278 277 277 277 277 277 278 277 277 275 271
309 308 307 306 305 304 303 303 302 301 301 300 299 299 298 297 295 294 293 292 290 289 288 287 286 285 284 284 283 282 281 280 279 279 278 277 277 276 275 275 274 273 273 272 272 272 272 272 272 272 272 272 273 273 274 274 275 276 276 275 275 275 275 275 276 277 277 276 272
309 308 307 306 305 304 303 303 302 302 301 301 300 299 298 297 296 294 293 292 291 290 289 288 287 287 287 285 284 283 282 281 280 280 279 278 277 275 274 274 273 272 272 271 271 271 271 271 271 272 272 272 272 272 273 273 273 273 273 272 272 271 271 271 272 273 275 275 273
309 308 307 306 305 304 304 303 303 302 302 301 300 299 299 298 297 296 294 293 292 292 291 290 289 289 288 286 285 284 283 282 281 281 280 279 277 276 275 273 273 272 271 271 271 271 271 271 271 271 271 271 271 271 271 271 270 270 269 268 268 268 267 268 268 268 269 270 270
309 308 307 306 305 305 304 304 303 303 302 302 301 301 300 299 298 298 297 296 295 294 293 292 292 290 289 288 287 286 285 284 283 282 281 280 279 277 276 275 273 272 271 271 270 270 269 269 269 269 269 269 268 268 267 267 267 267 266 266 266 266 266 267 267 267 267 267 267
309 308 308 307 306 306 306 305 305 304 304 303 303 302 302 301 301 300 299 299 298 297 297 296 294 293 291 290 290 289 288 287 286 285 284 282 281 280 278 277 276 274 273 272 271 270 269 268 268 268 267 267 266 265 265 265 265 265 265 265 266 266 267 267 268 268 268 268 267
310 310 309 309 308 308 307 307 307 306 305 305 304 304 303 303 302 302 301 301 300 300 299 298 296 295 294 293 293 292 291 290 289 287 286 285 284 282 281 280 279 278 277 275 274 273 272 271 270 269 269 268 267 266 265 265 265 265 265 265 266 266 267 267 267 268 268 268 267
312 312 311 311 310 310 309 309 308 308 307 306 305 305 304 303 303 303 302 302 301 300 299 298 297 296 295 294 293 292 291 290 289 288 287 286 285 284 282 282 281 280 279 279 278 277 276 275 274 273 273 272 271 270 268 267 267 267 266 266 267 267 267 267 267 268 268 268 266
314 313 313 312 312 311 311 310 309 309 308 307 306 305 304 303 302 302 302 302 301 300 298 297 295 294 294 293 292 291 291 290 289 288 287 286 285 283 282 281 280 280 280 279 279 278 277 276 276 275 275 275 274 272 271 270 269 268 267 267 267 267 267 267 267 267 267 266 264
315 315 314 313 313 312 311 311 310 309 307 306 305 305 304 303 302 301 301 301 301 299 298 297 296 295 294 294 293 292 290 290 290 289 288 287 286 285 283 282 281 281 280 279 278 278 277 276 275 274 274 273 272 271 269 268 268 267 266 266 266 267 267 267 267 266 265 264 262
316 315 314 314 313 312 311 310 309 308 307 306 305 305 304 303 303 302 302 301 301 299 298 297 296 296 295 294 294 293 292 291 290 290 290 289 288 286 286 285 284 283 282 281 280 279 277 276 275 274 272 271 269 268 267 266 265 265 265 266 266 266 266 266 266 265 264 262 259
316 316 314 313 312 311 310 309 308 307 307 306 305 305 304 304 303 303 303 303 301 300 299 299 298 297 296 296 295 294 294 293 292 291 291 290 289 288 288 287 286 285 284 283 282 281 280 279 277 275 273 271 269 267 266 266 265 265 266 266 266 266 266 266 265 264 262 259 255
317 316 314 312 311 310 310 309 308 307 307 306 305 305 304 304 304 304 304 304 302 301 300 301 300 299 298 298 297 297 296 295 294 292 292 291 291 290 289 289 288 287 287 286 285 284 282 281 279 277 274 272 270 269 268 267 266 266 266 267 267 267 267 266 265 263 259 254 249
317 315 314 312 310 310 310 309 308 307 307 306 306 306 305 305 305 306 306 306 304 302 302 301 301 300 300 299 298 298 297 296 295 294 293 292 291 291 290 289 289 288 288 287 286 285 283 281 279 276 274 273 271 270 269 268 267 266 266 266 266 267 267 266 264 261 255 247 241
317 315 314 312 311 311 310 309 308 308 307 306 306 306 306 307 307 308 308 307 306 304 302 301 301 301 301 300 299 298 297 297 296 294 293 292 292 291 290 289 289 289 288 287 286 284 282 280 278 276 274 273 272 270 268 267 265 265 264 264 264 265 265 265 263 258 251 242 237
317 316 315 314 313 312 311 310 309 309 309 308 307 307 309 310 310 309 309 308 306 305 303 302 301 301 301 301 299 298 298 297 296 296 295 294 294 293 291 290 290 289 288 287 286 284 282 280 278 277 276 274 272 269 267 265 263 262 262 262 262 262 261 261 258 253 247 240 235